星链-32522 (STARLINK-32522)

导读

STARLINK-32522是美国于2024年11月14日发射的星链卫星,属于SpaceX打造的星链星座组网卫星,旨在为全球提供低延迟、高速率的卫星互联网服务,填补地面通信网络覆盖盲区,支持偏远地区通信、物联网接入以及移动场景互联等多元应用场景,推进全球网络覆盖的一体化进程。

Basic Information
目录编号:
61981
目录名称:
STARLINK-32522
国际标识:
2024-210Y
轨道中心:
EARTH
卫星名称:
星链-32522
卫星全名:
星链-32522 (STARLINK-32522)
卫星状态:
在轨 (已飞行580 天)
发射日期:
2024-11-14 UTC
国别 :
美国 (US)
星等 :
--
Orbit Information
数据来源 国际轨道数据 AOE轨道数据
星历时间 2026-06-17T11:52:57+0800
20小时前
查看轨道信息
2026-06-11T11:00:00+0800
6天前
查看轨道信息
半长轴 6861.209km 6861.096km
偏心率 0.0001574 0.0002069
轨道倾角 43.003° 42.991°
近地点辐角 270.540° 274.489°
升交点赤经 337.997° 12.090°
平近点角 89.527° 328.926°
近地点 481.992km 481.539km
远地点 484.152km 484.379km
周期 94.267分钟 94.265分钟
每日圈数 15.275725 15.276102
Detailed Information
固有亮度:
5
最大亮度:
2.5
卫星平台:
Starlink V1.0
覆盖范围:
全球
运营商:
太空探索技术公司
运营商所在国:
美国
制造商(研发单位):
太空探索技术公司
制造商所在国:
美国
使用方式:
暂无
Satellite Introduction
Starlink 计划是 SpaceX 推出的全球卫星互联网项目,通过发射低轨道卫星,为全球尤其是偏远地区提供高速、低延迟的互联网服务。自 2019 年起,Starlink 已部署数千颗卫星,旨在缩小全球数字鸿沟,推动互联网普及。该项目还为军事、航空等行业提供通信支持,带来广泛经济效益。
2D Orbit Map
3D Orbit Map
Orbit Altitude Analysis Chart
Orbit Inclination Analysis Chart
Orbit Comprehensive Analysis Chart
View Comprehensive Chart